Regional Weather Roundup
Issued by NWS

Home | Current Version | Previous Version | Text Only | Print | Product List | Glossary On
Versions: 1 2 3 4 5 6 7 8 9 10 11 12 13 14 15 16 17 18 19 20 21 22 23 24 25 26 27 28 29 30 31 32 33 34 35 36 37 38 39 40 41 42 43 44 45 46 47 48 49 50
000
ASHW40 PHFO 032130
RWRHI

WEATHER ROUNDUP FOR HAWAII
NATIONAL WEATHER SERVICE HONOLULU HI
1100 AM HST FRI JUL 03 2015

THIS IS AN AUTOMATED REPORT THAT HAS NOT BEEN QUALITY CONTROLLED.

NOTE..."FAIR" INDICATES FEW OR NO CLOUDS BELOW 12,000 FEET WITH NO
SIGNIFICANT WEATHER AND/OR OBSTRUCTIONS TO VISIBILITY.

* - THESE SITES REPORT LIMITED FIELDS

HIZ001>004-032200-
KAUAI-NIIHAU-

CITY           SKY/WX    TMP DP  RH WIND       PRES   REMARKS
LIHUE APT      PTSUNNY   83  72  69 E8        29.94S
PORT ALLEN*    NOT AVBL
POIPU*           N/A     84 N/A N/A NE8G15      N/A
PRINCEVILLE*     N/A     82 N/A N/A MISG        N/A
KOKOLE POINT*  NOT AVBL
MOLOAA DAIRY*  NOT AVBL
WAIMEA HTS*    NOT AVBL
PUU OPAE*      NOT AVBL
PUU LUA*       NOT AVBL
MAKAHA RIDGE*    N/A     82  63  51 NW3         N/A
$$

HIZ005>011-032200-
OAHU-

CITY           SKY/WX    TMP DP  RH WIND       PRES   REMARKS
HONOLULU       PTSUNNY   83  73  72 SE13      29.92S
KALAELOA       SUNNY     84  73  69 SE10      29.93S HX  90
KANEOHE MCB    SUNNY     84  71  65 E9        29.91S
WHEELER FIELD  FAIR      83  68  60 VRB2      29.92S
BELLOWS*         N/A    N/A N/A N/A E10         N/A
KAHUKU*          N/A    N/A N/A N/A E8G17       N/A
WHEELER*       NOT AVBL
WAIANAE HARBOR NOT AVBL
DILLINGHAM*      N/A     93  70  46 MISG        N/A  HX  99
KAHUKU TRN*      N/A     73  55  53 E8G21       N/A
KAWAILOA*        N/A     82  66  57 E7G15       N/A
KII*             N/A     82  73  74 E15         N/A
MAKUA RANGE*     N/A     84  72  65 W3          N/A
OAHU FOREST NW NOT AVBL
SCHOFIELD BRK*   N/A     66  52  59 MISG        N/A
SCHOFIELD S*   NOT AVBL
WAIANAE VLY*   NOT AVBL
KUAOKALA*      NOT AVBL
HONOULIUULI*   NOT AVBL
MOKUOLOE IS*   NOT AVBL
PALEHUA*       NOT AVBL
WAIAWA PHB*    NOT AVBL
$$

HIZ012>013-032200-
MOLOKAI-

CITY           SKY/WX    TMP DP  RH WIND       PRES   REMARKS
MOLOKAI AIRPT  MOSUNNY   84  68  58 VRB5      29.93S
KALAUPAPA      NOT AVBL
MAKAPULAPAI*   NOT AVBL
MOLOKAI 1*     NOT AVBL
PUU ALII*        N/A     74  63  69 E1G7        N/A
$$

HIZ016-032200-
KAHOOLAWE-

CITY           SKY/WX    TMP DP  RH WIND       PRES   REMARKS
KAHOOLAWE*     NOT AVBL
HAKIOAWA*        N/A     80  71  73 MISG      30.35F
HONOKANAIA*      N/A     85  72  64 E20G29    29.92F HX  90
KANELOA*         N/A     79  70  73 E18G28    29.99S
KEALIALALO*      N/A     82  66  57 SE15G30   29.93R
LUA MAKIKA*    NOT AVBL
$$

HIZ014>015-032200-
LANAI-

CITY           SKY/WX    TMP DP  RH WIND       PRES   REMARKS
LANAI CITY     CLOUDY    78  69  73 SW6       29.98S
LANAI 1*       NOT AVBL
$$

HIZ017>028-032200-
MAUI-

CITY           SKY/WX    TMP DP  RH WIND       PRES   REMARKS
KAHULUI        MOSUNNY   91  69  48 NE17      29.90F HX  96
KAPALUA-W MAUI MOSUNNY   84  72  65 W7        29.93R
HANA AIRPORT   PTSUNNY   82  72  69 E8        29.97S
HANA*            N/A     82 N/A N/A E9G16       N/A
HALEAKALA SUMM   N/A     61  37  41 E5G20       N/A
MAALAEA BAY*   NOT AVBL
HALEAKALA*     NOT AVBL
KAUPO GAP*     NOT AVBL
KULA 1*          N/A     70  56  61 NW5G10      N/A
$$

HIZ023>026-032200-
BIG ISLAND OF HAWAII COAST AND LOWER SLOPES-

CITY           SKY/WX    TMP DP  RH WIND       PRES   REMARKS
KAILUA KONA    SUNNY     85  72  65 W12       29.89S HX  91
HILO           PTSUNNY   85  69  58 E10       29.94F
HONOKAA*       NOT AVBL
KAWAIHAE MWT*    N/A     88 N/A N/A W7          N/A
KAWAIHAE*        N/A     81 N/A N/A W6          N/A
SOUTH POINT*     N/A     77 N/A N/A E18G28      N/A
UPOLU AIRPORT*   N/A    N/A N/A N/A E23G31      N/A
KAMUELA*       CLEAR     81  63  54 N13       30.03S
HAKALAU*         N/A     70  52  52 E6G12       N/A
KALOKO-HONOKO*   N/A     84  72  65 W7        29.89S
PALI 2*          N/A     82  61  47 NE13G20     N/A
KEALAKOMO*       N/A     77  63  61 E18G24      N/A
KAUPULEHU*     NOT AVBL
KAPAPALA*        N/A     78  68  72 E8G15       N/A
LOWER KAHUKU*    N/A     70  64  83 NE3G12      N/A
PUHE CS*         N/A     84  72  65 W5G10       N/A
PUHO CS*         N/A     82  70  66 SW2         N/A
PTA KEAMUKU*     N/A     79  61  53 CALM        N/A
WAIKOLOA*      NOT AVBL
$$

HIZ027>028-032200-
BIG ISLAND OF HAWAII INTERIOR AND SUMMMITS-

CITY           SKY/WX    TMP DP  RH WIND       PRES   REMARKS
BRADSHAW FIELD MOSUNNY   74  56  53 W14G23    30.26F
MK VISITOR CEN   N/A      0   0 100 MISG        N/A
MAUNA KEA*       N/A     48  28  46 E10         N/A
MAUNA LOA*       N/A     54  34  47 MISG        N/A
MAUNA LOA 1*   NOT AVBL
PTA KIPUKA*      N/A     73  55  53 NW8G15      N/A
PTA RANGE 17*    N/A     54  41  62 W12G21      N/A
PTA WEST*        N/A     73  63  68 NW12G18     N/A
NENE CABIN*      N/A     70  57  64 E8G14       N/A
AHUMOA*        NOT AVBL
PTA PORTABLE*  NOT AVBL
PUU MALI*        N/A     68  55  64 NE21G30     N/A
$$

HIC003-032200-
NORTHWEST ISLANDS-

CITY           SKY/WX    TMP DP  RH WIND       PRES   REMARKS
MIDWAY ISLAND  SUNNY     84  73  70 W9        29.95F HX  91
MIDWAY NOS*    NOT AVBL
FRENCH FRIGATE NOT AVBL
$$

PHZ110>124-180-032200-
BUOY REPORTS

STATION/POSITION TIME  TEMP    WIND        PRES    WAVE   SWELL
                       AIR SEA DIR/SP/G            HT/PER HT/DIR
                 (UTC) (F)     (DEG/KT/KT) (MB)    (FT/S) (FT/D)
BUOY 51001       NOT AVBL
BUOY 51101       2100   78 80  190/  8/ 10 1012.5R   7/ 8
BUOY 51100       NOT AVBL
BUOY 51002       2100   80 81   80/ 16/ 19 1011.6F   7/10   5/100
BUOY 51003       2100   81 81  150/  8/ 12 1012.8R   6/ 9   5
BUOY 51004       1955   79 80   70/ 14/ 16 1012.4S   6/14   5/140
BARBERS PT BUOY  NOT AVBL
WAIMEA BAY BUOY  2100      80                N/A     3/11   2/320
KAILUA BAY BUOY  2100      80                N/A     5/ 8   2/340
LANAI BUOY       NOT AVBL
BARBERS PT 2     2100      81                N/A     4/15   3/190
PAUWELA MAUI     2100      79                N/A     5/ 9
HILO             2100      79                N/A     5/ 8   2/ 40
KANEOHE BAY BUOY 2100      80                N/A     4/ 9   2/340
HANALEI KAUAI    2100      81                N/A     4/ 9   2/310
KAHULUI HARBOR   2100   82 81   50/ 15/ 19 1012.5F
HONOLULU HARBOR  2100   84 82  160/  6/  9 1013.1S
KILO NALU        NOT AVBL
HILO HARBOR      2100   81 77   40/ 11/ 14 1013.5F
MOKUOLOE         2100   86 84  100/  9/ 12 1013.6S
NAWILIWILI       2100   80 81   90/  8/  9 1013.4S
WHOTS BUOY       NOT AVBL
BUOY 51028       NOT AVBL
$$

......................KEY........................................
  SKY/WX - SKY CONDITIONS/PRESENT WEATHER
  TMP    - TEMPERATURE IN FAHRENHEIT
  DWPT   - DEWPOINT IN FAHRENHEIT
  RH     - RELATIVE HUMIDITY IN PERCENT
  WIND   - DIRECTION AND SPEED /MPH FOR ISLANDS...KTS FOR BUOYS/
  PRES   - MEAN SEA LEVEL PRESSURE IN INCHES OF HG
  VSB    - VISIBILITY IN MILES
  HX     - HEAT INDEX
  WCI    - WIND CHILL INDEX
  VRB    - VARIABLE WIND DIRECTION
  N/A    - NOT AVAILABLE



USA.gov is the U.S. government's official web portal to all federal, state and local government web resources and services.